Albert Lea, MN

12:34 PM CST on February 18, 2018 (GMT -0600)
Albert Lea Municipal

Weather History for KAEL - September, 2013

Change the Weather History Date:

Thursday, September 12, 2013

  Actual Average Record
Temperature  
Mean Temperature 63 °F -  
Max Temperature 73 °F 72 °F 91 °F (1998)
Min Temperature 53 °F 51 °F 35 °F (2007)
Degree Days  
Heating Degree Days 2    
Growing Degree Days 13 (Base 50)    
Moisture  
Dew Point 48 °F    
Average Humidity 58    
Maximum Humidity 82    
Minimum Humidity 33    
Precipitation  
Precipitation 0.00 in - - ()
Sea Level Pressure  
Sea Level Pressure 30.17 in    
Wind  
Wind Speed 7 mph (NNW)    
Max Wind Speed 17 mph    
Max Gust Speed 25 mph    
Visibility 10 miles    
Events      
Averages and records for this station are not official NWS values.
T = Trace of Precipitation, MM = Missing Value Source: NWS Daily Summary

Daily Weather History Graph

Daily Weather History Graph

Search for Another Location

Airport or City:

Trip Planner

Search our weather history database for the weather conditions in past years. The results will help you decide how hot, cold, wet, or windy it might be!

Date:

Astronomy

Sep. 12, 2013 Rise Set
Actual Time 6:49 AM CDT 7:28 PM CDT
Civil Twilight 6:20 AM CDT 7:57 PM CDT
Nautical Twilight 5:46 AM CDT 8:31 PM CDT
Astronomical Twilight 5:10 AM CDT 9:07 PM CDT
Moon 2:30 PM CDT (9/12) No Moon Set
Length of Visible Light 13h 36m
Length of Day
12h 38m
Waxing Crescent, 50% of the Moon is Illuminated
Sep 12
Waxing Crescent
Sep 12
First Quarter
Sep 19
Full
Sep 26
Last Quarter
Oct 4
New

Hourly Weather History & Observations

Time (CDT) Temp. Dew Point Humidity Pressure Visibility Wind Dir Wind Speed Gust Speed Precip Events Conditions
12:11 AM 68.0 °F 55.4 °F 64% 30.09 in 10.0 mi NNW 3.5 mph - N/A   Clear
12:31 AM 66.2 °F 53.6 °F 64% 30.09 in 10.0 mi NNW 9.2 mph - N/A   Clear
12:52 AM 66.2 °F 51.8 °F 60% 30.09 in 10.0 mi NNW 8.1 mph - N/A   Clear
1:11 AM 64.4 °F 51.8 °F 64% 30.09 in 10.0 mi NNW 8.1 mph - N/A   Clear
1:32 AM 64.4 °F 51.8 °F 64% 30.10 in 10.0 mi NNW 8.1 mph - N/A   Clear
1:52 AM 64.4 °F 50.0 °F 59% 30.11 in 10.0 mi NW 4.6 mph - N/A   Clear
2:11 AM 64.4 °F 50.0 °F 59% 30.11 in 10.0 mi NNW 5.8 mph - N/A   Clear
2:31 AM 64.4 °F 48.2 °F 56% 30.11 in 10.0 mi NNW 4.6 mph - N/A   Clear
2:52 AM 62.6 °F 48.2 °F 59% 30.11 in 10.0 mi NW 8.1 mph - N/A   Clear
3:11 AM 62.6 °F 48.2 °F 59% 30.11 in 10.0 mi NW 5.8 mph - N/A   Clear
3:32 AM 62.6 °F 50.0 °F 63% 30.12 in 10.0 mi NNW 4.6 mph - N/A   Clear
3:52 AM 62.6 °F 48.2 °F 59% 30.13 in 10.0 mi NW 8.1 mph - N/A   Clear
4:11 AM 60.8 °F 48.2 °F 63% 30.13 in 10.0 mi NNW 5.8 mph - N/A   Clear
4:31 AM 59.0 °F 50.0 °F 72% 30.13 in 10.0 mi NNW 5.8 mph - N/A   Clear
4:52 AM 57.2 °F 48.2 °F 72% 30.14 in 10.0 mi NNW 5.8 mph - N/A   Clear
5:11 AM 57.2 °F 48.2 °F 72% 30.14 in 10.0 mi NNW 5.8 mph - N/A   Clear
5:31 AM 57.2 °F 48.2 °F 72% 30.14 in 10.0 mi NNW 5.8 mph - N/A   Clear
5:52 AM 55.4 °F 48.2 °F 77% 30.14 in 10.0 mi NNW 5.8 mph - N/A   Clear
6:11 AM 55.4 °F 48.2 °F 77% 30.15 in 10.0 mi NNW 4.6 mph - N/A   Clear
6:31 AM 55.4 °F 48.2 °F 77% 30.15 in 10.0 mi NNW 3.5 mph - N/A   Clear
6:52 AM 55.4 °F 48.2 °F 77% 30.16 in 10.0 mi NNW 4.6 mph - N/A   Clear
7:11 AM 55.4 °F 48.2 °F 77% 30.17 in 10.0 mi NNW 4.6 mph - N/A   Clear
7:31 AM 55.4 °F 50.0 °F 82% 30.17 in 10.0 mi NNW 4.6 mph - N/A   Clear
7:52 AM 57.2 °F 50.0 °F 77% 30.17 in 10.0 mi NNW 6.9 mph - N/A   Clear
8:11 AM 57.2 °F 51.8 °F 82% 30.18 in 10.0 mi NNW 8.1 mph - N/A   Clear
8:31 AM 59.0 °F 51.8 °F 77% 30.19 in 10.0 mi NNW 6.9 mph - N/A   Clear
8:52 AM 60.8 °F 51.8 °F 72% 30.19 in 10.0 mi NNW 8.1 mph - N/A   Clear
9:11 AM 62.6 °F 51.8 °F 68% 30.20 in 10.0 mi NNW 9.2 mph 17.3 mph N/A   Clear
9:31 AM 62.6 °F 51.8 °F 68% 30.20 in 10.0 mi North 11.5 mph - N/A   Clear
9:52 AM 64.4 °F 51.8 °F 64% 30.20 in 10.0 mi North 13.8 mph - N/A   Clear
10:11 AM 64.4 °F 51.8 °F 64% 30.21 in 10.0 mi NNW 9.2 mph - N/A   Clear
10:31 AM 66.2 °F 50.0 °F 56% 30.22 in 10.0 mi North 10.4 mph - N/A   Clear
10:52 AM 68.0 °F 48.2 °F 49% 30.21 in 10.0 mi NNW 11.5 mph - N/A   Clear
11:11 AM 68.0 °F 48.2 °F 49% 30.21 in 10.0 mi NNW 8.1 mph - N/A   Clear
11:32 AM 69.8 °F 48.2 °F 46% 30.21 in 10.0 mi North 11.5 mph 17.3 mph N/A   Clear
11:51 AM 69.8 °F 48.2 °F 46% 30.21 in 10.0 mi NNW 13.8 mph 18.4 mph N/A   Clear
12:12 PM 71.6 °F 48.2 °F 43% 30.21 in 10.0 mi North 10.4 mph 21.9 mph N/A   Clear
12:31 PM 69.8 °F 48.2 °F 46% 30.21 in 10.0 mi NNW 10.4 mph 20.7 mph N/A   Scattered Clouds
12:52 PM 71.6 °F 50.0 °F 46% 30.21 in 10.0 mi North 12.7 mph 19.6 mph N/A   Scattered Clouds
1:11 PM 71.6 °F 48.2 °F 43% 30.20 in 10.0 mi NNW 10.4 mph 21.9 mph N/A   Scattered Clouds
1:32 PM 71.6 °F 46.4 °F 41% 30.20 in 10.0 mi NNW 12.7 mph 21.9 mph N/A   Scattered Clouds
1:51 PM 71.6 °F 46.4 °F 41% 30.19 in 10.0 mi NNW 17.3 mph 25.3 mph N/A   Scattered Clouds
2:11 PM 71.6 °F 46.4 °F 41% 30.20 in 10.0 mi NNW 13.8 mph 19.6 mph N/A   Mostly Cloudy
2:32 PM 73.4 °F 44.6 °F 36% 30.19 in 10.0 mi NNW 15.0 mph 20.7 mph N/A   Scattered Clouds
2:51 PM 73.4 °F 44.6 °F 36% 30.18 in 10.0 mi NNW 13.8 mph 20.7 mph N/A   Mostly Cloudy
3:11 PM 73.4 °F 42.8 °F 33% 30.18 in 10.0 mi NNW 13.8 mph 20.7 mph N/A   Scattered Clouds
3:32 PM 73.4 °F 44.6 °F 36% 30.17 in 10.0 mi North 13.8 mph 19.6 mph N/A   Mostly Cloudy
3:51 PM 71.6 °F 46.4 °F 41% 30.17 in 10.0 mi North 11.5 mph 17.3 mph N/A   Mostly Cloudy
4:12 PM 71.6 °F 44.6 °F 38% 30.17 in 10.0 mi NNW 11.5 mph 20.7 mph N/A   Scattered Clouds
4:31 PM 69.8 °F 42.8 °F 38% 30.17 in 10.0 mi NNW 11.5 mph 23.0 mph N/A   Scattered Clouds
4:51 PM 73.4 °F 44.6 °F 36% 30.17 in 10.0 mi NNW 15.0 mph 18.4 mph N/A   Scattered Clouds
5:11 PM 73.4 °F 42.8 °F 33% 30.16 in 10.0 mi NNW 15.0 mph 19.6 mph N/A   Scattered Clouds
5:31 PM 71.6 °F 42.8 °F 35% 30.16 in 10.0 mi North 11.5 mph - N/A   Scattered Clouds
5:52 PM 71.6 °F 42.8 °F 35% 30.17 in 10.0 mi North 12.7 mph 17.3 mph N/A   Scattered Clouds
6:11 PM 69.8 °F 42.8 °F 38% 30.17 in 10.0 mi North 10.4 mph - N/A   Clear
6:31 PM 69.8 °F 44.6 °F 40% 30.18 in 10.0 mi North 8.1 mph - N/A   Clear
6:52 PM 66.2 °F 44.6 °F 46% 30.18 in 10.0 mi North 9.2 mph - N/A   Clear
7:11 PM 64.4 °F 44.6 °F 49% 30.18 in 10.0 mi North 5.8 mph - N/A   Clear
7:32 PM 64.4 °F 44.6 °F 49% 30.19 in 10.0 mi North 5.8 mph - N/A   Clear
7:51 PM 60.8 °F 46.4 °F 59% 30.19 in 10.0 mi North 4.6 mph - N/A   Clear
8:12 PM 60.8 °F 46.4 °F 59% 30.20 in 10.0 mi NNW 3.5 mph - N/A   Clear
8:31 PM 60.8 °F 46.4 °F 59% 30.20 in 10.0 mi NNW 3.5 mph - N/A   Clear
8:51 PM 59.0 °F 46.4 °F 63% 30.21 in 10.0 mi Calm Calm - N/A   Clear
9:11 PM 57.2 °F 46.4 °F 67% 30.21 in 10.0 mi Calm Calm - N/A   Scattered Clouds
9:32 PM 57.2 °F 46.4 °F 67% 30.21 in 10.0 mi North 4.6 mph - N/A   Clear
9:51 PM 55.4 °F 46.4 °F 72% 30.21 in 10.0 mi Calm Calm - N/A   Clear
10:11 PM 53.6 °F 46.4 °F 77% 30.22 in 10.0 mi North 3.5 mph - N/A   Clear
10:32 PM 55.4 °F 46.4 °F 72% 30.22 in 10.0 mi NNW 3.5 mph - N/A   Clear
10:51 PM 53.6 °F 46.4 °F 77% 30.22 in 10.0 mi North 4.6 mph - N/A   Clear
11:11 PM 53.6 °F 46.4 °F 77% 30.22 in 10.0 mi NNE 4.6 mph - N/A   Clear
11:32 PM 53.6 °F 46.4 °F 77% 30.23 in 10.0 mi North 3.5 mph - N/A   Clear
11:51 PM 53.6 °F 46.4 °F 77% 30.23 in 10.0 mi North 4.6 mph - N/A   Clear